[[{"header":{"parameterUnit":"m.s-1","parameterCategory":1,"la1":30.2991,"la2":30.254,"lo1":-89.0895,"lo2":-89.0444,"dy":0.0017,"dx":0.0017,"nx":28,"ny":28,"refTime":"2024-06-13T21:00:00:Z","depth":0,"parameterNumber":2,"parameterNumberName":"U-component_of_WINDS"},"data":[0,0,0,0,0,0,0,0,0,0,0,0,0,0,0,0,0,0,0,0,0,0,0,0,0,0,0,0,0,0,0,0,0,0,0,0,0,0,0,0,0,0,0,0,0,0,0,0,0,0,0,0,0,0,0,0,0,0,-1.4351,-1.435,0,-1.4207,-1.4206,-1.4204,-1.4163,-1.4164,-1.4165,-1.4165,-1.4016,-1.4011,-1.4007,0,0,0,0,0,0,0,0,0,0,0,0,0,-1.4592,-1.4588,-1.4352,-1.435,-1.4348,-1.4208,-1.4206,-1.4204,-1.4163,-1.4164,-1.4165,-1.4166,-1.4018,-1.4012,-1.4006,0,0,0,0,0,0,0,0,0,0,0,0,0,-1.4472,-1.4587,-1.4352,-1.4311,-1.4306,-1.4208,-1.4206,-1.4203,-1.4163,-1.4164,-1.4165,-1.4166,-1.4019,-1.4013,-1.4006,-1.3938,0,0,-1.3984,-1.3981,0,0,0,0,0,0,0,0,-1.4479,-1.4463,-1.4319,-1.4313,-1.4308,-1.4204,-1.4236,-1.4114,-1.4162,-1.4217,-1.4165,-1.4167,-1.4078,-1.4066,-1.4036,-1.3931,-1.3924,-1.3983,-1.3979,-1.3976,-1.3974,0,0,0,0,0,0,0,-1.4487,-1.4469,-1.4294,-1.4317,-1.431,-1.43,-1.4284,-1.4212,-1.4142,-1.4212,-1.4209,-1.4193,-1.4075,-1.4043,-1.4032,-1.3922,-1.3984,-1.3977,-1.3973,-1.397,-1.3757,-1.3756,0,0,0,0,0,0,-1.4503,-1.4476,-1.4299,-1.429,-1.4398,-1.4294,-1.4277,-1.4236,-1.4143,-1.413,-1.4192,-1.4191,-1.4055,-1.4041,-1.4027,-1.3943,-1.3976,-1.3969,-1.3965,-1.3759,-1.3757,-1.3755,0,0,0,0,0,0,-1.4508,-1.4487,-1.4305,-1.4382,-1.4358,-1.4289,-1.4244,-1.4233,-1.4201,-1.4127,-1.4115,-1.4172,-1.4055,-1.4037,-1.3961,-1.3937,-1.3966,-1.396,-1.376,-1.3758,-1.3756,-1.3774,0,0,0,0,0,0,-1.4515,-1.4489,-1.4462,-1.4382,-1.4354,-1.4241,-1.4242,-1.4229,-1.4189,-1.4187,-1.4106,-1.4093,-1.4055,-1.3972,-1.3954,-1.3928,-1.3954,-1.3762,-1.3759,-1.3757,-1.3775,-1.3773,-1.3771,0,0,0,0,0,-1.4524,-1.4472,-1.4461,-1.444,-1.4319,-1.424,-1.4224,-1.4181,-1.4187,-1.416,-1.4113,-1.4096,-1.3943,-1.3964,-1.3944,-1.3915,-1.3763,-1.376,-1.3757,-1.3776,-1.3773,-1.3771,0,0,0,0,0,0,-1.455,-1.4461,-1.4448,-1.4368,-1.4312,-1.4233,-1.4197,-1.4179,-1.4119,-1.4119,-1.4068,-1.405,-1.3979,-1.3939,-1.3965,-1.3847,-1.3853,-1.3846,-1.3874,-1.3871,-1.3869,-1.3879,-1.3948,0,0,0,0,0,-1.4547,-1.449,-1.4415,-1.4353,-1.4325,-1.4267,-1.423,-1.4202,-1.4142,-1.4117,-1.4065,-1.4006,-1.3946,-1.3906,-1.3846,-1.377,-1.3752,-1.3741,-1.3738,-1.3737,-1.3731,-1.369,-1.3684,-1.3745,-1.3745,-1.3745,0,0,-1.4539,-1.4484,-1.445,-1.4357,-1.431,-1.4252,-1.4246,-1.4185,-1.4142,-1.4108,-1.4033,-1.3993,-1.3925,-1.385,-1.3814,-1.3815,-1.3711,-1.3733,-1.3732,-1.3727,-1.3686,-1.3681,-1.3676,-1.3743,-1.3743,-1.3744,0,0,-1.4496,-1.4448,-1.4392,-1.4346,-1.4275,-1.4237,-1.4224,-1.4148,-1.4121,-1.4046,-1.4019,-1.3968,-1.3863,-1.3816,-1.3779,-1.3722,-1.3705,-1.3704,-1.3692,-1.3653,-1.3648,-1.3644,-1.3624,-1.3618,-1.3699,-1.3699,-1.3699,0,-1.4495,-1.4408,-1.4365,-1.4306,-1.4266,-1.4234,-1.4177,-1.4134,-1.4048,-1.4021,-1.4024,-1.3895,-1.3846,-1.376,-1.3747,-1.3718,-1.3702,-1.3713,-1.3652,-1.3647,-1.3642,-1.3624,-1.3617,-1.3699,-1.3699,-1.3699,-1.3699,0,-1.4411,-1.4351,-1.4314,-1.4233,-1.4189,-1.4131,-1.4081,-1.4041,-1.4019,-1.398,-1.3906,-1.3847,-1.3776,-1.3754,-1.3729,-1.3665,-1.3668,-1.3662,-1.3668,-1.3638,-1.362,-1.3612,-1.37,-1.37,-1.37,-1.3699,0,0,-1.4377,-1.4276,-1.4263,-1.4227,-1.4149,-1.4102,-1.4044,-1.3976,-1.3944,-1.3886,-1.3837,-1.3751,-1.3746,-1.3704,-1.3675,-1.364,-1.3601,-1.3639,-1.3637,-1.3635,-1.3529,-1.3534,-1.3526,-1.359,-1.3588,-1.3587,-1.3535,0,-1.4325,-1.422,-1.4181,-1.4096,-1.4041,-1.4012,-1.3961,-1.3909,-1.3872,-1.3821,-1.378,-1.3721,-1.3718,-1.3693,-1.3658,-1.3614,-1.358,-1.3617,-1.3544,-1.3542,-1.3562,-1.3516,-1.352,-1.3474,-1.3527,-1.3526,-1.3525,0,-1.4248,-1.4192,-1.4101,-1.4033,-1.4008,-1.3964,-1.3899,-1.385,-1.3791,-1.3767,-1.3722,-1.3696,-1.3635,-1.3645,-1.3562,-1.3588,-1.3556,-1.3531,-1.3528,-1.3519,-1.3531,-1.3506,-1.3457,-1.3451,-1.3513,-1.3514,-1.3515,0,-1.4235,-1.4136,-1.4069,-1.4039,-1.3957,-1.3927,-1.3892,-1.3833,-1.3796,-1.3739,-1.3715,-1.3652,-1.3617,-1.357,-1.3528,-1.3539,-1.3449,-1.3455,-1.3428,-1.3429,-1.3409,-1.3411,-1.3355,-1.3389,-1.3389,-1.3389,-1.339,0,-1.418,-1.4125,-1.4062,-1.4021,-1.3961,-1.3918,-1.3859,-1.3821,-1.3771,-1.3723,-1.3693,-1.3649,-1.3597,-1.3546,-1.3513,-1.345,-1.3434,-1.3414,-1.3406,-1.3416,-1.3419,-1.3394,-1.3397,-1.3388,-1.3388,-1.3388,-1.3389,0,-1.4153,-1.4108,-1.4034,-1.3964,-1.3945,-1.3904,-1.3844,-1.3804,-1.3768,-1.3707,-1.3691,-1.3634,-1.3573,-1.3527,-1.3447,-1.3426,-1.3359,-1.335,-1.3379,-1.3375,-1.3351,-1.3354,-1.3277,-1.3265,-1.3307,-1.3307,-1.3306,0,-1.4121,-1.4079,-1.4005,-1.3971,-1.3937,-1.3882,-1.3844,-1.3801,-1.3763,-1.3694,-1.3662,-1.36,-1.3547,-1.3452,-1.3403,-1.3343,-1.3333,-1.331,-1.3323,-1.3337,-1.3333,-1.3337,-1.3333,-1.3308,-1.3308,-1.3308,-1.3308,0,-1.4068,-1.4049,-1.3996,-1.3936,-1.3892,-1.3842,-1.3791,-1.3765,-1.3714,-1.3672,-1.3611,-1.357,-1.3491,-1.3429,-1.3365,-1.3329,-1.331,-1.3304,-1.3295,-1.3305,-1.3324,-1.3314,-1.3375,-1.3306,-1.3306,-1.3306,-1.3306,-1.3306,-1.4038,-1.4,-1.3944,-1.3886,-1.3844,-1.3799,-1.3758,-1.3718,-1.3666,-1.3598,-1.3577,-1.3513,-1.3457,-1.3369,-1.3333,-1.3283,-1.3283,-1.3269,-1.3266,-1.3263,-1.3264,-1.3333,-1.3271,-1.3271,-1.3271,-1.3271,-1.3271,0,-1.3985,-1.3948,-1.3895,-1.3827,-1.3782,-1.377,-1.3715,-1.3678,-1.3623,-1.3573,-1.3523,-1.3453,-1.3394,-1.3343,-1.3282,-1.3252,-1.3242,-1.3238,-1.3239,-1.3232,-1.3267,-1.3282,-1.3247,-1.3247,-1.3247,-1.3247,-1.3247,-1.3247,-1.3952,-1.3889,-1.3863,-1.378,-1.3743,-1.3681,-1.3651,-1.3609,-1.3569,-1.3493,-1.3445,-1.3412,-1.3362,-1.3298,-1.3244,-1.3231,-1.321,-1.3208,-1.3192,-1.3226,-1.3229,-1.3232,-1.3245,-1.3203,-1.3203,-1.3161,-1.316,-1.316]},{"header":{"parameterUnit":"m.s-1","parameterCategory":1,"la1":30.2991,"la2":30.254,"lo1":-89.0895,"lo2":-89.0444,"dy":0.0017,"dx":0.0017,"nx":28,"ny":28,"refTime":"2024-06-13T21:00:00:Z","depth":0,"parameterNumber":3,"parameterNumberName":"V-component_of_WINDS"},"data":[0,0,0,0,0,0,0,0,0,0,0,0,0,0,0,0,0,0,0,0,0,0,0,0,0,0,0,0,0,0,0,0,0,0,0,0,0,0,0,0,0,0,0,0,0,0,0,0,0,0,0,0,0,0,0,0,0,0,1.9565,1.9565,0,1.9545,1.9544,1.9544,1.9572,1.9573,1.9574,1.9575,1.9549,1.9547,1.9546,0,0,0,0,0,0,0,0,0,0,0,0,0,1.9623,1.9621,1.9565,1.9565,1.9564,1.9545,1.9544,1.9544,1.9572,1.9573,1.9574,1.9575,1.955,1.9548,1.9546,0,0,0,0,0,0,0,0,0,0,0,0,0,1.9599,1.9621,1.9565,1.9576,1.9577,1.9545,1.9544,1.9544,1.9572,1.9573,1.9575,1.9576,1.955,1.9548,1.9545,1.95,0,0,1.9538,1.9537,0,0,0,0,0,0,0,0,1.9601,1.9597,1.9575,1.9575,1.9576,1.9563,1.9555,1.9529,1.9571,1.9573,1.9575,1.9577,1.9552,1.9549,1.9542,1.9499,1.9498,1.9538,1.9536,1.9535,1.9535,0,0,0,0,0,0,0,1.9602,1.9598,1.9557,1.9574,1.9575,1.958,1.9579,1.955,1.9554,1.9573,1.9575,1.9573,1.9553,1.9544,1.9542,1.9497,1.9538,1.9536,1.9534,1.9533,1.9413,1.9411,0,0,0,0,0,0,1.9603,1.9599,1.9557,1.9556,1.9593,1.9578,1.9576,1.9565,1.9555,1.9555,1.9572,1.9574,1.9548,1.9545,1.9541,1.9485,1.9535,1.9533,1.9532,1.9414,1.9412,1.941,0,0,0,0,0,0,1.9604,1.9599,1.9558,1.9578,1.9574,1.9575,1.9563,1.9564,1.9556,1.9553,1.9554,1.9563,1.9549,1.9544,1.951,1.9484,1.9532,1.953,1.9416,1.9414,1.9411,1.9373,0,0,0,0,0,0,1.9606,1.9599,1.9583,1.9578,1.9572,1.9529,1.9561,1.9563,1.9552,1.9556,1.9545,1.9545,1.955,1.9513,1.9507,1.9482,1.9528,1.9419,1.9415,1.9412,1.9377,1.937,1.9364,0,0,0,0,0,1.9608,1.9573,1.9583,1.9577,1.9553,1.9527,1.9524,1.9532,1.955,1.9533,1.9531,1.9545,1.9489,1.9509,1.9503,1.9476,1.942,1.9416,1.9412,1.938,1.9371,1.9364,0,0,0,0,0,0,1.9574,1.9573,1.9583,1.9546,1.9537,1.9532,1.9511,1.9523,1.9507,1.951,1.9519,1.9517,1.9479,1.9475,1.9498,1.9431,1.9457,1.9452,1.9435,1.9426,1.942,1.9421,1.9526,0,0,0,0,0,1.9563,1.9544,1.9543,1.951,1.9505,1.9509,1.9498,1.9505,1.9495,1.9491,1.9487,1.9475,1.9454,1.9441,1.9422,1.9377,1.9374,1.9356,1.9349,1.9344,1.9338,1.9311,1.9302,1.9398,1.9398,1.9398,0,0,1.9538,1.9535,1.9522,1.9503,1.9497,1.9475,1.9505,1.9482,1.9465,1.9487,1.9453,1.945,1.9437,1.9397,1.9379,1.9392,1.9311,1.9339,1.9334,1.9332,1.9306,1.9297,1.9289,1.9395,1.9395,1.9396,0,0,1.9482,1.9479,1.945,1.9443,1.9434,1.9437,1.943,1.9423,1.9422,1.9389,1.9405,1.9384,1.935,1.9339,1.9329,1.9269,1.928,1.9262,1.9227,1.9201,1.9193,1.9187,1.9162,1.9154,1.9257,1.9257,1.9257,0,1.9452,1.9422,1.9433,1.9408,1.9398,1.9419,1.9388,1.9381,1.9365,1.9356,1.9372,1.9328,1.9321,1.9277,1.9262,1.9255,1.9245,1.9262,1.9194,1.9187,1.9181,1.9158,1.9149,1.9255,1.9255,1.9255,1.9256,0,1.9384,1.9363,1.934,1.9326,1.9313,1.9286,1.9291,1.9277,1.9285,1.9285,1.925,1.9243,1.9222,1.9212,1.9219,1.9168,1.9177,1.9193,1.9219,1.917,1.9148,1.9139,1.9252,1.9252,1.9253,1.9254,0,0,1.9305,1.9297,1.9288,1.9281,1.9272,1.9255,1.9227,1.9208,1.9194,1.9183,1.9158,1.9128,1.9142,1.9131,1.9137,1.9115,1.9063,1.9134,1.9133,1.9118,1.9004,1.8989,1.8979,1.9072,1.9071,1.9069,1.9004,0,1.9247,1.92,1.921,1.9163,1.9142,1.9161,1.9137,1.9127,1.9127,1.9107,1.9106,1.9083,1.9106,1.9099,1.9078,1.9074,1.904,1.908,1.9046,1.9045,1.9046,1.8968,1.8953,1.8892,1.8995,1.8994,1.8993,0,1.9172,1.9159,1.911,1.9103,1.9095,1.9073,1.9055,1.9037,1.9026,1.9027,1.9014,1.9024,1.8994,1.9023,1.898,1.9006,1.8993,1.899,1.8987,1.8982,1.9014,1.8958,1.8872,1.8862,1.898,1.8981,1.8982,0,1.9116,1.9086,1.9052,1.9046,1.9038,1.9021,1.9016,1.9007,1.8995,1.8979,1.897,1.895,1.8939,1.8922,1.8925,1.8947,1.888,1.891,1.8878,1.8877,1.8861,1.8861,1.8769,1.8857,1.8857,1.8857,1.8857,0,1.9048,1.9017,1.9027,1.9006,1.8971,1.8981,1.8946,1.8943,1.8935,1.8912,1.8928,1.8905,1.8913,1.889,1.8893,1.8855,1.885,1.8848,1.8849,1.8845,1.8845,1.8835,1.8838,1.8855,1.8855,1.8856,1.8856,0,1.8978,1.8984,1.8948,1.8943,1.8941,1.8915,1.891,1.8889,1.8891,1.8861,1.8855,1.8856,1.883,1.8833,1.8804,1.8805,1.8757,1.8764,1.8761,1.8762,1.8728,1.873,1.8623,1.8609,1.8709,1.8708,1.8707,0,1.8933,1.891,1.8903,1.8889,1.8884,1.8862,1.885,1.8859,1.8844,1.8829,1.881,1.8786,1.8767,1.8725,1.8721,1.8698,1.8703,1.8667,1.8699,1.8696,1.8698,1.8699,1.8695,1.866,1.8659,1.8658,1.8657,0,1.8852,1.8856,1.8838,1.882,1.8805,1.8791,1.8779,1.8766,1.8774,1.8757,1.8732,1.8717,1.8688,1.8662,1.8641,1.8634,1.8645,1.8647,1.8638,1.8633,1.8631,1.8628,1.8741,1.8649,1.865,1.865,1.8651,1.8651,1.8791,1.877,1.8762,1.8741,1.8733,1.872,1.87,1.8699,1.8679,1.8656,1.8663,1.8633,1.8621,1.8593,1.8584,1.8559,1.8572,1.8559,1.8555,1.8551,1.8546,1.8637,1.8556,1.8556,1.8556,1.8556,1.8556,0,1.8708,1.8704,1.8685,1.8667,1.865,1.8665,1.8652,1.8635,1.861,1.8598,1.858,1.8549,1.8524,1.8519,1.8495,1.8476,1.8481,1.8469,1.8469,1.8467,1.8537,1.8546,1.8466,1.8466,1.8466,1.8466,1.8466,1.8466,1.8663,1.8628,1.863,1.8591,1.8586,1.8558,1.8549,1.8537,1.8528,1.8493,1.8474,1.8471,1.8461,1.8436,1.8414,1.8412,1.8401,1.8387,1.8388,1.8453,1.8462,1.8471,1.8479,1.8385,1.8385,1.8318,1.8318,1.8317]}]]